TimeEST,TemperatureF,Dew PointF,Humidity,Sea Level PressureIn,VisibilityMPH,Wind Direction,Wind SpeedMPH,Gust SpeedMPH,PrecipitationIn,Events,Conditions,WindDirDegrees,DateUTC
12:54 AM,30.0,21.9,72,30.08,10.0,NW,6.9,-,N/A,,Overcast,310,2013-03-07 05:54:00
1:54 AM,28.9,21.9,75,30.09,10.0,NW,8.1,-,N/A,,Overcast,320,2013-03-07 06:54:00
2:54 AM,30.0,21.9,72,30.08,10.0,NW,6.9,-,N/A,,Overcast,320,2013-03-07 07:54:00
3:54 AM,30.0,23.0,75,30.08,10.0,NNW,5.8,-,N/A,,Overcast,340,2013-03-07 08:54:00
4:54 AM,28.9,23.0,78,30.10,10.0,WNW,6.9,-,N/A,,Overcast,290,2013-03-07 09:54:00
5:54 AM,28.0,23.0,81,30.11,10.0,NW,5.8,-,N/A,,Overcast,310,2013-03-07 10:54:00
7:54 AM,28.9,24.1,82,30.14,10.0,WNW,8.1,-,N/A,,Overcast,300,2013-03-07 12:54:00
8:51 AM,28.4,24.8,86,30.09,10.0,WNW,12.7,-,N/A,,Overcast,290,2013-03-07 13:51:00
8:54 AM,28.9,25.0,85,30.17,10.0,WNW,11.5,-,N/A,,Overcast,290,2013-03-07 13:54:00
9:03 AM,28.4,24.8,86,30.10,10.0,WNW,9.2,-,N/A,,Overcast,290,2013-03-07 14:03:00
9:54 AM,30.0,26.1,85,30.17,10.0,WNW,9.2,-,N/A,,Overcast,290,2013-03-07 14:54:00
10:54 AM,30.9,26.1,82,30.18,10.0,WNW,12.7,-,N/A,,Overcast,300,2013-03-07 15:54:00
11:02 AM,32.0,24.8,75,30.10,10.0,NW,13.8,-,N/A,,Overcast,320,2013-03-07 16:02:00
11:54 AM,33.1,25.0,72,30.18,10.0,NW,16.1,-,0.00,,Overcast,320,2013-03-07 16:54:00
12:17 PM,32.0,24.8,75,30.11,9.0,NW,17.3,-,0.00,,Overcast,310,2013-03-07 17:17:00
12:47 PM,33.8,23.0,65,30.10,10.0,WNW,13.8,-,0.00,,Overcast,300,2013-03-07 17:47:00
12:54 PM,33.1,24.1,70,30.17,10.0,WNW,16.1,-,0.00,,Overcast,300,2013-03-07 17:54:00
1:54 PM,33.1,23.0,66,30.17,8.0,WNW,18.4,21.9,N/A,,Overcast,300,2013-03-07 18:54:00
2:08 PM,30.2,24.8,80,30.10,1.8,NW,17.3,-,0.00,Snow,Light Snow,310,2013-03-07 19:08:00
2:17 PM,32.0,24.8,75,30.10,3.0,NNW,13.8,-,0.00,Snow,Light Snow,330,2013-03-07 19:17:00
2:30 PM,30.2,26.6,86,30.10,1.8,NNW,12.7,-,0.00,Snow,Light Snow,330,2013-03-07 19:30:00
2:38 PM,30.2,26.6,86,30.10,2.0,NW,10.4,-,0.00,Snow,Light Snow,310,2013-03-07 19:38:00
2:47 PM,32.0,26.6,80,30.10,7.0,WNW,11.5,-,0.00,Snow,Light Snow,300,2013-03-07 19:47:00
2:54 PM,32.0,26.1,79,30.17,9.0,NW,11.5,-,0.00,,Overcast,310,2013-03-07 19:54:00
3:40 PM,33.8,24.8,70,30.09,10.0,NW,17.3,-,N/A,,Overcast,310,2013-03-07 20:40:00
3:54 PM,33.1,24.1,70,30.17,10.0,WNW,16.1,-,N/A,,Overcast,300,2013-03-07 20:54:00
4:22 PM,32.0,26.6,80,30.11,1.5,NNW,17.3,21.9,0.00,Snow,Light Snow,330,2013-03-07 21:22:00
4:31 PM,30.2,26.6,86,30.11,0.8,NW,11.5,-,0.00,Snow,Light Snow,310,2013-03-07 21:31:00
4:36 PM,30.2,26.6,86,30.11,3.0,NW,11.5,-,0.00,Snow,Light Snow,320,2013-03-07 21:36:00
4:54 PM,30.9,25.0,79,30.19,9.0,NW,10.4,-,0.00,,Overcast,310,2013-03-07 21:54:00
5:24 PM,30.2,26.6,86,30.12,1.8,NNW,13.8,-,0.00,Snow,Light Snow,330,2013-03-07 22:24:00
5:38 PM,30.2,26.6,86,30.12,0.8,NW,18.4,24.2,0.00,Snow,Light Snow,310,2013-03-07 22:38:00
5:43 PM,30.2,26.6,86,30.12,0.2,NW,20.7,25.3,0.00,Fog-Snow,Snow,320,2013-03-07 22:43:00
5:51 PM,28.4,26.6,93,30.12,0.2,NW,20.7,-,0.01,Fog-Snow,Heavy Snow,310,2013-03-07 22:51:00
5:54 PM,28.9,27.0,92,30.20,0.2,NW,19.6,-,0.01,Fog-Snow,Heavy Snow,310,2013-03-07 22:54:00
5:58 PM,28.4,26.6,93,30.12,0.5,NW,17.3,-,0.00,Fog-Snow,Snow,310,2013-03-07 22:58:00
6:02 PM,28.4,26.6,93,30.12,1.0,NW,15.0,-,0.00,Snow,Light Snow,310,2013-03-07 23:02:00
6:07 PM,28.4,26.6,93,30.13,3.0,NW,13.8,-,0.00,Snow,Light Snow,310,2013-03-07 23:07:00
6:41 PM,30.2,26.6,86,30.14,9.0,NW,10.4,-,0.00,,Overcast,320,2013-03-07 23:41:00
6:54 PM,30.0,27.0,88,30.22,10.0,NW,11.5,19.6,0.00,,Overcast,320,2013-03-07 23:54:00
7:16 PM,28.4,26.6,93,30.14,10.0,NNW,10.4,20.7,N/A,,Overcast,330,2013-03-08 00:16:00
7:33 PM,28.4,26.6,93,30.14,10.0,NNW,10.4,18.4,N/A,,Mostly Cloudy,330,2013-03-08 00:33:00
7:54 PM,28.9,26.1,89,30.22,10.0,NW,10.4,-,N/A,,Mostly Cloudy,320,2013-03-08 00:54:00
8:08 PM,28.4,26.6,93,30.15,10.0,NNW,10.4,-,N/A,,Overcast,330,2013-03-08 01:08:00
8:39 PM,28.4,24.8,86,30.15,10.0,NNW,10.4,-,N/A,,Overcast,330,2013-03-08 01:39:00
8:43 PM,28.4,24.8,86,30.15,10.0,NNW,10.4,-,N/A,,Overcast,330,2013-03-08 01:43:00
8:54 PM,28.9,25.0,85,30.23,10.0,NNW,10.4,19.6,N/A,,Overcast,340,2013-03-08 01:54:00
9:42 PM,28.4,24.8,86,30.15,10.0,NW,12.7,-,N/A,,Overcast,320,2013-03-08 02:42:00
9:54 PM,28.9,25.0,85,30.23,10.0,NW,11.5,19.6,N/A,,Overcast,320,2013-03-08 02:54:00
10:24 PM,28.4,24.8,86,30.15,10.0,NW,12.7,-,N/A,,Overcast,320,2013-03-08 03:24:00
10:44 PM,28.4,23.0,80,30.15,10.0,NW,16.1,25.3,N/A,,Overcast,320,2013-03-08 03:44:00
10:54 PM,28.0,24.1,85,30.23,10.0,NW,12.7,-,N/A,,Overcast,320,2013-03-08 03:54:00
11:02 PM,28.4,24.8,86,30.15,10.0,NW,12.7,-,N/A,,Overcast,320,2013-03-08 04:02:00
11:54 PM,27.0,23.0,85,30.23,10.0,NW,16.1,-,N/A,,Overcast,320,2013-03-08 04:54:00